Theta_e
325 331 325 319 325 329 332 331 330 331 333 336 339 345 345 345 344 343 341 341 339 338 336 335 334 332 329 328 328 328 328 326 326 324 326 327 328 328 327 327 328 327 327
328 333 325 319 325 329 330 330 332 333 337 339 344 345 345 343 341 341 340 338 338 336 336 334 332 331 330 330 330 328 327 327 325 326 325 325 327 327 327 327 327 327 327
331 331 320 320 326 329 331 333 335 337 341 343 344 343 342 340 340 339 339 338 338 337 335 332 331 330 330 330 328 327 326 326 325 326 325 325 324 326 326 326 328 327 327
336 329 327 329 330 332 335 339 341 342 342 343 342 341 340 340 339 339 339 337 336 334 333 332 331 330 330 329 328 327 325 325 326 326 325 323 323 324 325 324 324 325 325
334 334 336 336 337 338 340 340 341 342 342 342 341 340 340 339 339 339 335 334 333 333 333 332 330 330 329 328 327 327 325 327 326 326 325 323 324 324 324 323 323 323 325
338 339 339 339 340 341 340 341 342 342 341 340 340 340 339 339 338 335 333 331 331 331 331 331 331 331 329 328 329 328 326 327 326 326 326 325 324 324 323 322 322 323 323
341 340 341 342 341 340 340 340 340 340 340 340 339 340 338 337 334 331 330 330 331 331 331 331 331 331 330 329 328 328 326 326 327 327 326 325 324 324 323 322 323 324 323
340 340 340 339 339 338 337 336 337 338 340 338 336 334 333 331 331 331 331 331 331 330 331 331 330 329 329 329 328 328 326 326 327 327 327 326 324 324 323 322 323 322 323
337 336 336 335 334 334 333 332 334 335 332 331 331 330 331 331 331 331 330 329 329 329 329 329 329 327 327 329 329 327 326 326 326 326 326 326 326 324 323 322 322 321 320
335 334 333 333 333 333 332 332 330 330 327 328 327 327 328 329 330 330 330 329 327 327 328 328 327 326 326 327 328 328 324 324 325 325 325 325 324 323 323 323 322 322 321
333 332 332 332 332 332 331 329 327 326 326 325 325 326 327 329 329 329 329 328 328 327 328 326 327 328 327 326 328 328 327 325 324 325 324 324 323 323 323 323 323 323 323
331 331 330 330 330 330 329 327 326 325 324 323 324 324 324 326 327 328 328 328 328 327 327 328 328 328 328 328 327 327 326 324 323 323 322 322 322 322 323 322 322 322 322
330 330 329 329 329 329 328 325 324 324 323 322 323 323 323 323 325 327 326 326 327 327 328 327 327 326 326 326 325 324 324 323 322 322 321 321 322 323 323 323 323 322 322
328 328 328 328 329 328 327 326 324 323 323 323 323 323 323 324 324 325 325 325 325 325 325 324 325 326 325 324 324 323 323 322 323 322 321 322 322 322 322 322 322 321 321
329 328 328 328 327 326 325 326 325 324 324 323 323 323 323 323 324 325 325 325 325 325 324 324 323 322 321 322 323 323 322 322 322 322 322 322 321 322 321 321 321 321 321
328 327 326 324 322 321 321 322 324 326 324 324 323 324 324 324 324 325 324 324 324 323 322 321 320 321 321 321 321 321 321 321 322 322 322 321 321 321 321 320 321 320 320
325 324 323 323 322 321 322 322 318 323 325 324 324 323 323 324 324 324 323 323 323 322 321 320 320 320 321 321 321 320 320 321 321 321 321 321 321 321 321 320 320 320 320
325 325 324 323 322 322 323 323 324 323 321 319 322 323 322 321 321 321 320 320 320 321 321 320 320 320 321 320 320 319 320 320 320 321 321 322 321 321 320 320 320 320 320
326 325 324 324 324 323 324 324 324 323 318 314 319 320 320 320 320 321 321 321 321 321 321 321 320 320 321 320 320 319 320 320 320 320 321 321 321 321 321 321 320 320 320
326 325 325 323 323 324 324 324 322 319 319 319 317 318 320 320 321 322 322 321 321 321 320 320 320 320 320 320 321 320 320 320 320 320 320 320 321 321 321 321 321 320 320
324 325 325 324 322 323 322 323 322 322 320 317 317 319 320 320 317 317 316 317 318 320 321 322 321 321 321 322 321 322 321 321 320 320 321 321 321 321 321 321 321 322 322
326 325 324 323 322 323 323 324 322 320 319 317 317 318 320 319 314 311 310 311 312 314 316 317 319 320 322 323 322 324 323 322 322 322 322 323 322 322 322 323 323 324 324
326 326 324 324 322 322 323 323 321 320 319 318 317 317 318 313 310 307 305 305 307 310 311 313 313 314 314 317 319 321 323 322 322 322 322 323 324 324 324 323 323 321 319
327 326 324 323 322 322 322 321 320 321 319 315 312 310 309 308 304 302 302 302 303 304 305 307 307 308 309 311 314 316 317 319 320 322 322 321 319 318 317 314 312 311 312
326 325 324 323 322 321 318 315 314 312 310 308 305 305 302 302 300 298 299 299 298 298 298 299 300 301 303 304 305 307 311 314 313 314 312 311 308 306 305 303 302 301 300
319 319 319 319 316 313 310 308 306 305 303 302 301 300 299 298 297 296 295 294 294 293 293 293 294 296 298 299 300 301 302 304 304 303 304 303 301 299 298 298 297 295 295
Wind_Speed
25 27 27 30 33 34 36 34 27 23 22 23 21 21 24 24 22 19 18 19 17 17 17 16 14 13 14 12 11 10 8 8 3 2 3 6 7 6 7 10 17 12 13
27 27 28 30 30 29 31 28 24 22 24 22 22 26 26 23 21 21 22 18 18 19 17 15 15 14 13 12 11 10 10 9 5 4 6 6 9 8 10 14 15 14 13
25 23 24 27 29 28 26 23 22 25 25 23 27 29 25 23 24 23 19 19 18 18 17 17 16 15 14 13 12 11 10 9 8 8 7 10 11 12 13 13 13 13 11
22 20 21 27 27 25 23 24 25 25 25 27 29 26 24 25 23 19 19 19 17 16 16 15 15 16 15 15 13 13 11 9 9 12 13 10 10 13 16 17 15 13 12
21 20 22 24 25 27 27 27 26 26 27 29 27 23 23 23 21 21 18 15 14 14 15 15 14 13 13 13 14 15 13 13 14 15 12 11 10 14 13 12 16 15 13
21 22 21 22 24 24 26 27 28 26 26 26 25 25 24 22 20 17 14 14 13 13 15 15 14 12 12 11 15 15 15 17 14 12 9 12 11 14 15 18 18 11 4
22 22 24 24 22 25 29 31 29 28 28 28 25 25 22 20 18 15 14 13 13 12 13 14 13 12 13 12 15 13 14 14 16 22 20 17 17 19 21 16 11 10 7
19 25 27 27 25 29 29 29 31 30 29 28 25 22 20 16 15 13 13 11 9 9 9 11 11 11 12 18 18 16 15 14 14 15 17 19 18 21 22 17 16 14 15
18 21 27 30 28 28 28 30 32 32 27 24 22 18 16 15 13 12 11 10 9 8 8 9 10 12 12 15 19 18 16 14 11 9 11 11 12 20 21 21 16 17 6
21 22 26 30 31 30 33 35 30 29 27 24 20 16 15 15 12 11 10 11 10 11 11 11 10 10 9 9 18 20 19 15 14 14 11 11 13 17 12 21 17 13 10
27 27 27 31 32 37 35 33 31 30 27 22 20 16 15 12 12 11 10 9 11 14 14 12 10 8 10 12 15 16 17 17 16 17 18 18 18 17 15 18 20 17 14
31 29 30 31 30 33 35 30 31 29 26 21 20 16 12 11 12 11 9 8 8 14 16 15 15 13 12 12 13 12 15 16 16 18 20 20 20 19 16 14 17 14 14
25 27 30 31 31 34 31 29 25 23 22 18 15 14 13 12 13 11 11 12 12 17 18 18 15 13 13 14 12 17 16 13 15 17 16 16 16 16 13 12 12 11 8
34 24 29 30 26 26 29 30 25 19 18 16 15 13 14 13 13 13 12 12 12 15 16 17 16 14 13 18 17 13 13 14 16 17 16 15 14 14 15 13 12 11 10
29 26 26 28 29 29 24 17 20 20 22 20 15 16 16 13 12 13 12 14 15 19 20 19 18 19 20 16 14 13 12 13 15 16 16 15 15 15 15 14 13 13 8
25 24 23 25 25 28 26 22 18 18 17 15 17 18 13 13 13 12 12 13 16 18 19 19 17 18 17 16 15 13 11 10 12 14 13 14 14 13 13 12 10 12 10
24 24 25 26 22 20 18 21 17 18 15 17 13 13 15 15 14 12 11 12 15 15 19 16 14 14 16 15 13 12 11 10 11 11 13 12 12 12 12 12 10 8 9
28 29 25 22 22 18 18 18 20 19 16 18 18 19 18 16 15 16 15 14 12 13 16 15 13 12 14 13 11 10 10 10 9 9 10 11 11 11 10 10 9 8 8
27 22 25 24 22 24 20 19 20 21 20 23 25 21 18 20 19 12 10 11 12 12 12 13 12 12 11 9 9 8 9 9 9 9 10 10 10 10 8 8 10 11 10
26 29 27 24 20 20 19 20 21 22 20 19 22 23 24 22 13 13 12 10 9 9 10 10 10 10 8 7 8 8 8 9 9 9 9 9 9 9 9 7 7 7 9
24 26 28 21 19 20 22 22 23 21 21 19 23 23 23 18 14 18 17 16 15 13 10 8 7 6 5 5 5 5 7 7 8 9 8 7 8 9 8 9 10 11 11
26 23 21 21 22 23 23 24 23 23 22 22 22 21 20 18 19 20 21 19 17 17 15 15 14 12 10 8 6 5 5 4 4 4 4 5 7 10 12 13 13 14 13
26 25 22 20 21 27 24 23 24 23 23 22 23 24 21 20 20 19 18 18 19 19 18 17 17 15 13 11 9 8 7 6 4 2 2 2 2 4 7 7 6 2 5
25 26 25 22 21 23 23 23 24 24 24 24 25 25 24 22 19 19 20 21 23 24 24 24 23 21 19 18 16 13 11 9 7 6 5 6 9 10 13 14 14 12 11
25 24 24 25 23 24 25 23 25 26 26 27 27 27 26 24 24 23 25 27 29 30 30 30 30 29 28 27 25 21 16 16 16 15 16 17 18 18 19 19 17 17 16
29 26 26 29 27 27 27 27 27 28 27 27 28 27 27 28 28 29 30 31 33 34 34 34 33 33 32 30 26 23 22 21 22 21 21 21 23 23 20 19 19 20 18
Wind_Direction
273 269 255 244 240 237 234 236 231 226 214 207 208 200 192 187 186 194 197 190 190 188 191 189 192 193 187 184 189 201 201 186 152 139 150 140 116 148 166 176 177 176 175
266 260 248 237 235 230 229 227 221 211 202 200 195 188 185 185 189 188 187 182 184 187 182 188 190 185 183 187 200 205 201 190 158 149 145 140 127 141 143 142 151 160 166
262 245 233 227 222 217 213 211 199 195 189 188 184 182 184 183 184 188 188 186 187 188 190 188 188 190 187 194 195 189 184 183 182 162 147 145 137 144 142 140 136 138 144
243 223 216 209 205 196 184 181 181 186 182 182 184 185 181 184 185 179 181 181 183 189 193 197 197 201 198 194 196 192 179 167 171 144 138 140 145 149 144 134 125 129 129
209 189 188 183 179 170 171 176 179 178 177 180 174 178 178 177 176 173 175 176 184 193 200 205 207 213 215 210 203 189 176 153 144 138 138 145 144 150 147 149 138 141 133
170 163 155 154 153 152 158 162 162 165 166 168 170 171 171 169 169 174 174 180 190 198 204 207 212 217 208 217 208 203 195 172 156 153 157 153 161 155 156 154 146 137 121
158 152 146 151 150 149 152 154 155 159 162 165 167 162 161 162 168 175 182 190 196 207 213 213 214 209 209 205 193 196 198 202 199 184 164 166 165 172 167 161 160 147 137
160 143 145 146 145 149 146 146 150 157 156 153 151 153 156 161 172 183 189 192 196 202 202 199 192 190 200 192 184 182 187 192 201 200 201 188 187 178 179 171 165 140 142
142 141 144 143 140 143 138 136 141 147 145 145 147 150 154 150 160 169 176 172 170 168 171 177 187 185 183 188 181 170 170 178 185 189 202 206 191 178 180 175 158 148 138
137 139 140 139 140 138 130 134 143 145 140 137 132 140 144 141 148 156 168 162 152 152 151 157 170 172 162 214 192 175 160 167 163 161 165 169 181 178 189 194 170 156 147
135 135 135 128 130 129 133 142 142 136 132 125 120 126 130 133 139 151 154 160 160 156 156 153 149 172 188 170 183 178 173 159 156 155 155 161 167 172 182 189 190 187 168
135 133 120 130 129 136 138 136 135 131 122 119 119 116 123 135 141 140 146 156 161 163 150 141 129 118 119 137 149 149 149 148 147 152 156 159 164 173 180 183 194 194 193
133 126 131 130 135 140 130 127 121 127 126 125 128 132 134 130 128 134 139 147 140 140 140 138 133 138 137 136 137 142 143 148 152 148 147 158 172 178 176 180 190 200 205
126 137 128 127 126 128 130 135 131 131 130 135 144 145 143 138 139 142 140 142 147 148 142 138 144 145 144 137 139 143 145 150 159 159 163 166 171 173 178 185 181 185 191
133 125 124 125 124 120 116 120 134 147 153 153 157 156 151 153 159 151 144 141 147 150 140 135 130 128 131 137 136 138 143 150 157 164 164 164 169 174 180 184 189 186 191
123 126 127 122 122 124 121 113 133 141 150 147 150 156 159 160 152 149 143 141 146 151 138 131 130 137 141 145 143 139 146 154 162 167 171 172 171 181 182 182 189 200 194
121 121 120 124 126 127 129 126 112 121 132 133 134 139 142 136 133 134 142 148 154 156 140 141 134 141 149 154 152 151 152 161 166 167 173 177 179 181 181 184 187 193 209
128 132 128 130 132 134 133 131 132 129 119 111 122 122 118 119 119 121 128 134 124 147 145 145 144 152 158 158 161 156 160 164 170 171 177 181 184 185 186 200 208 212 218
124 124 132 133 136 136 125 131 132 122 119 118 114 113 116 117 113 103 124 125 128 137 148 156 161 161 160 164 167 173 183 184 183 182 185 190 192 194 205 217 216 224 224
132 140 136 131 127 125 127 126 119 119 123 119 120 123 127 129 106 90 106 113 102 118 133 144 156 160 164 172 173 176 179 182 188 191 191 198 205 213 222 223 222 227 235
125 132 132 120 121 126 125 127 128 126 122 118 127 135 135 119 80 93 92 92 97 103 119 131 149 156 169 179 185 178 178 181 189 192 199 208 217 227 235 241 249 256 259
132 129 126 123 125 126 128 129 126 125 125 126 130 130 132 109 97 91 86 87 90 96 102 108 110 107 112 126 145 159 171 164 172 199 225 240 246 253 261 265 271 281 288
131 127 123 119 121 125 119 122 122 123 123 125 120 119 123 106 99 95 90 89 91 94 95 97 95 95 94 98 107 118 133 134 125 153 209 224 305 306 285 276 284 62 54
135 133 127 124 124 124 120 117 122 122 121 115 116 115 116 110 98 94 94 95 94 91 90 88 84 82 83 83 87 94 99 100 98 97 108 106 93 93 89 82 79 77 76
128 127 123 121 121 118 110 107 107 109 110 114 114 116 115 114 108 102 102 101 98 95 90 88 86 85 83 82 80 81 86 92 93 98 96 93 88 86 89 89 83 73 62
119 115 116 120 117 117 116 111 109 112 109 111 115 116 117 115 112 112 110 107 104 98 95 91 87 86 83 80 77 78 81 86 88 87 89 90 86 74 63 66 67 66 60